�������l�o���
Date,Time,MP-1(��Sv/h),MP-2(��Sv/h),MP-3(��Sv/h),MP-4(��Sv/h),MP-5(��Sv/h),MP-6(��Sv/h),MP-7(��Sv/h),MP-8(��Sv/h),����,����(m/s),���J
2024/02/16,00:00,0.519,0.785,0.491,0.981,0.704,0.317,0.561,0.529,��,8.4,��
2024/02/16,00:10,0.518,0.782,0.492,0.982,0.707,0.317,0.563,0.526,��,7.9,�L
2024/02/16,00:20,0.518,0.783,0.493,0.981,0.705,0.319,0.562,0.527,���k��,7.7,�L
2024/02/16,00:30,0.517,0.782,0.490,0.983,0.707,0.318,0.562,0.528,��,5.8,�L
2024/02/16,00:40,0.517,0.784,0.491,0.980,0.705,0.318,0.563,0.525,�쐼,1.7,�L
2024/02/16,00:50,0.520,0.782,0.493,0.981,0.707,0.317,0.562,0.526,�쐼,1.1,�L
2024/02/16,01:00,0.518,0.783,0.493,0.982,0.706,0.319,0.561,0.526,��,2.3,�L
2024/02/16,01:10,0.517,0.783,0.494,0.982,0.705,0.317,0.562,0.526,�쓌,2.5,�L
2024/02/16,01:20,0.517,0.785,0.494,0.980,0.708,0.318,0.563,0.526,��,2.3,�L
2024/02/16,01:30,0.518,0.782,0.493,0.983,0.706,0.319,0.563,0.528,��쓌,4.2,�L
2024/02/16,01:40,0.516,0.785,0.491,0.983,0.708,0.318,0.562,0.526,��쓌,3.6,�L
2024/02/16,01:50,0.519,0.783,0.493,0.981,0.707,0.319,0.563,0.527,�쐼,2.3,��
2024/02/16,02:00,0.517,0.784,0.491,0.981,0.708,0.317,0.564,0.525,��,4.4,��
2024/02/16,02:10,0.516,0.783,0.490,0.982,0.706,0.318,0.562,0.527,��,6.0,��
2024/02/16,02:20,0.518,0.781,0.492,0.979,0.707,0.318,0.564,0.524,��,5.1,��
2024/02/16,02:30,0.518,0.782,0.491,0.982,0.706,0.318,0.563,0.525,���k��,6.4,��
2024/02/16,02:40,0.517,0.783,0.493,0.982,0.705,0.318,0.561,0.527,�k��,10.5,��
2024/02/16,02:50,0.517,0.785,0.491,0.983,0.706,0.316,0.561,0.525,�k��,11.4,��
2024/02/16,03:00,0.516,0.782,0.489,0.981,0.706,0.316,0.560,0.525,�k��,13.8,��
2024/02/16,03:10,0.518,0.782,0.488,0.982,0.705,0.316,0.560,0.525,�k�k��,11.0,��
2024/02/16,03:20,0.518,0.782,0.489,0.983,0.706,0.315,0.560,0.525,�k�k��,8.3,��
2024/02/16,03:30,0.517,0.782,0.490,0.982,0.706,0.315,0.562,0.525,�k��,10.6,��
2024/02/16,03:40,0.516,0.781,0.491,0.980,0.705,0.316,0.560,0.525,�k��,10.3,��
2024/02/16,03:50,0.517,0.780,0.491,0.982,0.707,0.318,0.559,0.525,�k��,9.6,��
2024/02/16,04:00,0.516,0.783,0.490,0.982,0.706,0.315,0.559,0.526,�k��,10.0,��
2024/02/16,04:10,0.517,0.782,0.490,0.982,0.706,0.317,0.560,0.525,�k��,12.8,��
2024/02/16,04:20,0.518,0.781,0.491,0.982,0.706,0.315,0.560,0.523,�k��,12.4,��
2024/02/16,04:30,0.516,0.780,0.489,0.981,0.706,0.315,0.561,0.526,�k��,10.7,��
2024/02/16,04:40,0.516,0.782,0.487,0.983,0.706,0.315,0.562,0.525,�k��,14.2,��
2024/02/16,04:50,0.515,0.781,0.490,0.981,0.706,0.315,0.560,0.527,�k��,11.4,��
2024/02/16,05:00,0.516,0.783,0.489,0.983,0.707,0.314,0.560,0.526,�k��,11.0,��
2024/02/16,05:10,0.517,0.782,0.490,0.981,0.706,0.315,0.562,0.526,�k��,10.5,��
2024/02/16,05:20,0.516,0.782,0.490,0.984,0.705,0.314,0.561,0.524,�k��,10.2,��
2024/02/16,05:30,0.516,0.780,0.490,0.983,0.705,0.316,0.563,0.526,�k��,8.4,��
2024/02/16,05:40,0.517,0.782,0.490,0.981,0.707,0.315,0.561,0.526,�k�k��,8.2,��
2024/02/16,05:50,0.516,0.781,0.487,0.982,0.707,0.315,0.563,0.526,�k�k��,6.8,��
2024/02/16,06:00,0.516,0.784,0.489,0.981,0.704,0.315,0.561,0.524,�k��,12.4,��
2024/02/16,06:10,0.515,0.782,0.490,0.983,0.706,0.313,0.562,0.525,�k��,8.6,��
2024/02/16,06:20,0.516,0.784,0.491,0.981,0.706,0.315,0.564,0.525,�k�k��,10.2,��
2024/02/16,06:30,0.517,0.782,0.489,0.982,0.704,0.314,0.562,0.525,�k��,9.0,��
2024/02/16,06:40,0.516,0.781,0.488,0.983,0.706,0.313,0.561,0.525,�k��,10.0,��
2024/02/16,06:50,0.515,0.782,0.487,0.981,0.707,0.313,0.561,0.525,�k�k��,7.6,��
2024/02/16,07:00,0.516,0.784,0.488,0.984,0.706,0.313,0.561,0.524,�k��,9.5,��
2024/02/16,07:10,0.516,0.780,0.487,0.982,0.706,0.314,0.559,0.524,�k��,9.0,��
2024/02/16,07:20,0.516,0.783,0.489,0.983,0.708,0.315,0.561,0.525,�k��,10.6,��
2024/02/16,07:30,0.517,0.781,0.489,0.983,0.705,0.313,0.562,0.525,�k��,11.3,��
2024/02/16,07:40,0.517,0.783,0.488,0.984,0.706,0.314,0.561,0.525,�k��,9.6,��
2024/02/16,07:50,0.516,0.782,0.489,0.983,0.707,0.313,0.562,0.525,�k��,11.0,��
2024/02/16,08:00,0.514,0.781,0.487,0.982,0.706,0.314,0.561,0.524,�k��,8.0,��
2024/02/16,08:10,0.517,0.782,0.487,0.983,0.705,0.313,0.561,0.524,�k��,7.0,��
2024/02/16,08:20,0.515,0.780,0.487,0.980,0.705,0.315,0.561,0.524,�k�k��,6.2,��
2024/02/16,08:30,0.517,0.781,0.488,0.982,0.705,0.312,0.560,0.525,�k�k��,8.2,��
2024/02/16,08:40,0.515,0.783,0.489,0.984,0.707,0.314,0.560,0.525,�k�k��,7.3,��
2024/02/16,08:50,0.517,0.782,0.487,0.982,0.705,0.313,0.560,0.524,�k�k��,9.4,��
2024/02/16,09:00,0.515,0.784,0.489,0.984,0.706,0.314,0.559,0.525,�k�k��,10.3,��
2024/02/16,09:10,0.517,0.784,0.488,0.982,0.707,0.312,0.560,0.526,�k��,8.0,��
2024/02/16,09:20,0.515,0.782,0.488,0.983,0.702,0.313,0.560,0.526,�k��,10.8,��
2024/02/16,09:30,0.515,0.783,0.487,0.982,0.705,0.313,0.560,0.526,�k��,12.4,��
2024/02/16,09:40,0.514,0.783,0.488,0.982,0.706,0.313,0.558,0.527,�k�k��,10.0,��
2024/02/16,09:50,0.515,0.781,0.487,0.980,0.707,0.313,0.558,0.526,�k��,10.7,��
2024/02/16,10:00,0.513,0.780,0.486,0.983,0.703,0.312,0.559,0.525,�k�k��,8.9,��
2024/02/16,10:10,0.515,0.781,0.487,0.983,0.704,0.313,0.559,0.525,�k�k��,10.0,��
2024/02/16,10:20,0.515,0.782,0.487,0.982,0.708,0.313,0.560,0.525,�k��,9.1,��
2024/02/16,10:30,0.515,0.780,0.487,0.983,0.706,0.313,0.558,0.525,�k�k��,6.0,��
2024/02/16,10:40,0.515,0.780,0.488,0.982,0.706,0.314,0.558,0.525,�k��,9.2,��
2024/02/16,10:50,0.514,0.782,0.488,0.984,0.706,0.314,0.558,0.525,�k�k��,8.0,��
2024/02/16,11:00,0.515,0.782,0.487,0.984,0.706,0.313,0.558,0.525,�k��,8.4,��
2024/02/16,11:10,0.515,0.780,0.486,0.982,0.707,0.312,0.558,0.526,�k��,11.6,��
2024/02/16,11:20,0.516,0.777,0.487,0.981,0.705,0.313,0.557,0.525,�k��,7.1,��
2024/02/16,11:30,0.516,0.781,0.488,0.981,0.706,0.313,0.558,0.524,�k��,8.0,��
2024/02/16,11:40,0.515,0.782,0.488,0.982,0.705,0.312,0.557,0.527,�k��,9.6,��
2024/02/16,11:50,0.516,0.783,0.488,0.983,0.705,0.311,0.558,0.525,�k��,8.8,��
2024/02/16,12:00,0.515,0.782,0.488,0.982,0.707,0.313,0.559,0.525,�k�k��,10.2,��
2024/02/16,12:10,0.515,0.782,0.487,0.983,0.709,0.313,0.559,0.525,�k�k��,8.9,��
2024/02/16,12:20,0.516,0.781,0.490,0.981,0.706,0.313,0.560,0.526,�k�k��,10.9,��
2024/02/16,12:30,0.514,0.780,0.488,0.984,0.707,0.312,0.559,0.525,�k�k��,11.3,��
2024/02/16,12:40,0.516,0.779,0.489,0.983,0.706,0.312,0.558,0.526,�k�k��,12.7,��
2024/02/16,12:50,0.517,0.782,0.489,0.981,0.705,0.314,0.557,0.526,�k�k��,12.5,��
2024/02/16,13:00,0.517,0.782,0.489,0.982,0.705,0.313,0.557,0.526,�k�k��,10.2,��
2024/02/16,13:10,0.516,0.781,0.488,0.983,0.708,0.315,0.560,0.526,�k�k��,9.5,��
2024/02/16,13:20,0.518,0.782,0.487,0.983,0.705,0.313,0.558,0.525,�k��,7.5,��
2024/02/16,13:30,0.517,0.782,0.489,0.987,0.706,0.313,0.559,0.525,�k�k��,11.1,��
2024/02/16,13:40,0.516,0.782,0.487,0.982,0.705,0.313,0.556,0.524,�k�k��,8.5,��
2024/02/16,13:50,0.517,0.782,0.487,0.984,0.706,0.314,0.557,0.525,�k�k��,9.9,��
2024/02/16,14:00,0.517,0.781,0.489,0.985,0.707,0.313,0.556,0.524,�k�k��,9.8,��
2024/02/16,14:10,0.516,0.783,0.489,0.986,0.706,0.313,0.557,0.523,�k�k��,8.0,��
2024/02/16,14:20,0.517,0.781,0.488,0.982,0.708,0.313,0.557,0.522,�k��,6.2,��
2024/02/16,14:30,0.516,0.782,0.488,0.985,0.707,0.314,0.557,0.523,�k�k��,7.5,��
2024/02/16,14:40,0.515,0.783,0.488,0.983,0.707,0.313,0.557,0.522,�k�k��,5.4,��
2024/02/16,14:50,0.515,0.781,0.488,0.985,0.706,0.314,0.556,0.522,�k�k��,7.5,��
2024/02/16,15:00,0.518,0.783,0.487,0.984,0.706,0.312,0.558,0.524,�k�k��,7.6,��
2024/02/16,15:10,0.516,0.781,0.489,0.983,0.705,0.312,0.557,0.522,�k�k��,7.8,��
2024/02/16,15:20,0.517,0.783,0.490,0.984,0.708,0.313,0.560,0.521,�k�k��,6.0,��
2024/02/16,15:30,0.517,0.782,0.489,0.984,0.706,0.314,0.559,0.524,�k�k��,7.2,��
2024/02/16,15:40,0.518,0.786,0.488,0.985,0.707,0.312,0.559,0.525,�k�k��,5.2,��
2024/02/16,15:50,0.516,0.782,0.489,0.983,0.706,0.313,0.559,0.525,�k,6.9,��
2024/02/16,16:00,0.517,0.784,0.490,0.986,0.708,0.313,0.560,0.525,�k,5.4,��
2024/02/16,16:10,0.517,0.781,0.489,0.983,0.707,0.313,0.559,0.524,�k�k��,5.5,��
2024/02/16,16:20,0.518,0.785,0.489,0.985,0.706,0.313,0.560,0.523,�k�k��,7.0,��
2024/02/16,16:30,0.515,0.783,0.488,0.984,0.705,0.314,0.561,0.524,�k�k��,5.8,��
2024/02/16,16:40,0.517,0.783,0.488,0.983,0.706,0.312,0.560,0.524,�k�k��,6.3,��
2024/02/16,16:50,0.516,0.785,0.490,0.984,0.708,0.313,0.561,0.523,�k�k��,6.7,��
2024/02/16,17:00,0.516,0.783,0.488,0.982,0.707,0.312,0.561,0.525,�k�k��,4.5,��
2024/02/16,17:10,0.517,0.784,0.489,0.984,0.706,0.313,0.560,0.526,�k�k��,4.7,��
2024/02/16,17:20,0.518,0.784,0.489,0.983,0.710,0.313,0.560,0.524,�k�k��,5.7,��
2024/02/16,17:30,0.516,0.783,0.489,0.983,0.707,0.313,0.562,0.523,�k�k��,6.2,��
2024/02/16,17:40,0.516,0.782,0.488,0.984,0.707,0.312,0.559,0.523,�k�k��,5.9,��
2024/02/16,17:50,0.515,0.783,0.488,0.985,0.708,0.312,0.559,0.524,�k�k��,6.2,��
2024/02/16,18:00,0.517,0.785,0.489,0.985,0.708,0.314,0.560,0.524,�k�k��,7.7,��
2024/02/16,18:10,0.516,0.783,0.488,0.984,0.707,0.311,0.559,0.522,�k�k��,4.8,��
2024/02/16,18:20,0.514,0.784,0.487,0.985,0.708,0.313,0.559,0.525,�k��,6.6,��
2024/02/16,18:30,0.517,0.784,0.488,0.983,0.707,0.312,0.560,0.523,�k�k��,4.9,��
2024/02/16,18:40,0.517,0.785,0.488,0.985,0.708,0.312,0.561,0.522,�k�k��,5.3,��
2024/02/16,18:50,0.515,0.784,0.486,0.985,0.708,0.311,0.559,0.524,�k��,6.1,��
2024/02/16,19:00,0.514,0.784,0.488,0.985,0.707,0.311,0.561,0.524,�k��,7.3,��
2024/02/16,19:10,0.515,0.784,0.489,0.985,0.708,0.312,0.558,0.523,�k�k��,7.2,��
2024/02/16,19:20,0.516,0.784,0.488,0.984,0.710,0.311,0.560,0.521,�k��,5.5,��
2024/02/16,19:30,0.516,0.783,0.488,0.982,0.707,0.313,0.559,0.522,�k��,5.3,��
2024/02/16,19:40,0.516,0.782,0.488,0.984,0.707,0.310,0.558,0.523,�k��,5.4,��
2024/02/16,19:50,0.514,0.784,0.488,0.986,0.707,0.312,0.559,0.523,�k��,5.0,��
2024/02/16,20:00,0.514,0.784,0.488,0.986,0.707,0.313,0.560,0.523,�k��,4.9,��
2024/02/16,20:10,0.515,0.783,0.487,0.984,0.708,0.312,0.560,0.524,�k�k��,5.2,��
2024/02/16,20:20,0.515,0.784,0.487,0.983,0.708,0.313,0.558,0.524,�k�k��,6.0,��
2024/02/16,20:30,0.515,0.783,0.487,0.983,0.708,0.313,0.559,0.524,�k�k��,5.9,��
2024/02/16,20:40,0.516,0.783,0.487,0.983,0.708,0.312,0.559,0.524,�k�k��,4.9,��
2024/02/16,20:50,0.517,0.784,0.487,0.985,0.707,0.312,0.560,0.522,�k�k��,5.5,��
2024/02/16,21:00,0.515,0.781,0.487,0.983,0.708,0.312,0.558,0.522,�k��,5.7,��
2024/02/16,21:10,0.516,0.781,0.487,0.984,0.708,0.311,0.558,0.523,�k�k��,5.5,��
2024/02/16,21:20,0.515,0.783,0.487,0.983,0.707,0.312,0.560,0.522,�k�k��,4.7,��
2024/02/16,21:30,0.515,0.784,0.486,0.983,0.707,0.312,0.559,0.524,�k�k��,5.2,��
2024/02/16,21:40,0.513,0.782,0.487,0.983,0.706,0.311,0.560,0.522,�k�k��,4.3,��
2024/02/16,21:50,0.516,0.782,0.487,0.983,0.706,0.311,0.557,0.522,�k�k��,4.7,��
2024/02/16,22:00,0.514,0.785,0.487,0.983,0.707,0.312,0.559,0.521,�k��,5.0,��
2024/02/16,22:10,0.515,0.784,0.486,0.982,0.706,0.312,0.559,0.525,�k��,5.7,��
2024/02/16,22:20,0.516,0.783,0.486,0.983,0.706,0.312,0.559,0.522,�k��,5.5,��
2024/02/16,22:30,0.515,0.783,0.486,0.984,0.706,0.311,0.558,0.523,�k��,6.1,��
2024/02/16,22:40,0.516,0.783,0.487,0.982,0.708,0.311,0.558,0.522,�k��,5.2,��
2024/02/16,22:50,0.515,0.783,0.486,0.983,0.707,0.312,0.558,0.523,�k��,4.7,��
2024/02/16,23:00,0.513,0.782,0.487,0.981,0.708,0.311,0.559,0.522,�k��,4.8,��
2024/02/16,23:10,0.517,0.782,0.487,0.982,0.707,0.311,0.560,0.522,�k��,4.9,��
2024/02/16,23:20,0.515,0.784,0.486,0.981,0.707,0.312,0.559,0.522,�k��,4.4,��
2024/02/16,23:30,0.516,0.782,0.488,0.984,0.709,0.311,0.558,0.522,�k��,4.5,��
2024/02/16,23:40,0.516,0.782,0.486,0.983,0.706,0.310,0.558,0.522,�k��,4.5,��
2024/02/16,23:50,0.515,0.784,0.486,0.985,0.706,0.311,0.559,0.522,�k��,3.9,��
